Theta_e
312 309 307 311 297 295 291 295 300 300 300 301 304 301 298 300 298 294 322 336 338 340 345 347 349 351 351 350 349 348 347 346 344 344 344 343 342 341 342 344 345 346 341 340 338 338 338 336 336
304 309 311 304 288 284 287 296 298 302 303 303 303 301 299 300 317 322 326 334 339 342 345 346 346 350 351 350 349 347 347 347 346 344 345 345 344 345 344 343 344 342 341 340 338 339 336 335 334
301 309 302 298 289 283 283 292 299 299 302 300 300 303 301 301 316 322 327 335 339 342 345 345 345 350 351 350 349 347 348 348 347 347 345 344 343 343 344 343 343 343 341 340 339 339 338 335 335
296 303 299 291 287 291 290 294 296 296 298 299 300 300 305 317 322 326 333 338 339 342 344 343 346 350 351 349 348 347 348 348 348 348 347 345 344 344 343 343 343 341 339 336 339 336 336 335 335
297 296 286 284 286 291 294 294 291 293 293 295 297 298 300 320 329 330 333 338 338 341 343 342 345 348 349 349 348 347 348 348 347 347 347 345 344 343 344 342 339 338 338 336 336 334 335 334 333
291 291 283 279 282 289 289 287 289 289 290 292 293 292 301 324 315 327 334 335 339 340 343 343 339 342 345 347 347 346 346 346 346 346 346 344 344 344 343 342 340 338 335 336 333 334 333 332 331
286 285 279 279 282 286 285 288 287 286 286 292 291 293 307 305 300 314 331 335 336 340 341 342 344 341 337 341 342 343 344 344 344 344 343 341 341 342 340 340 339 337 336 334 332 332 331 330 328
290 287 280 281 281 283 284 286 288 286 286 292 295 297 299 296 301 309 327 330 333 335 339 341 343 343 343 342 334 336 339 340 340 339 337 335 336 336 335 334 336 337 335 331 333 331 329 328 328
290 280 279 282 281 282 285 284 287 289 286 287 291 292 297 298 301 300 308 316 331 335 334 339 341 341 343 343 337 332 333 334 334 334 331 330 336 334 331 329 333 335 334 331 333 333 331 329 327
284 279 279 284 282 282 284 285 285 285 285 285 288 293 297 297 297 297 299 304 308 327 335 338 340 340 341 342 340 339 338 338 338 337 334 336 333 332 332 326 328 331 331 333 334 333 331 325 318
284 280 283 284 285 286 286 285 286 284 283 285 286 289 293 295 296 297 297 301 304 308 326 334 337 340 341 340 339 338 338 338 337 334 333 333 332 329 329 326 328 326 323 326 327 327 321 318 314
280 285 285 286 288 287 285 286 284 285 286 290 290 291 291 293 295 296 297 297 303 306 309 326 331 335 337 339 338 338 337 337 336 334 333 330 329 328 327 327 325 324 324 322 320 318 316 314 313
281 283 287 288 288 287 288 285 285 286 290 290 290 292 291 292 294 297 299 299 301 305 308 315 326 332 335 334 336 337 337 336 336 334 333 331 329 327 326 325 324 323 321 321 318 316 315 313 312
285 286 286 287 287 287 285 285 285 287 289 288 290 290 291 292 294 296 297 298 298 301 310 315 318 329 332 333 335 337 337 335 335 334 334 331 329 327 326 324 323 321 321 319 319 316 313 311 310
286 282 283 284 285 284 286 281 282 287 289 288 289 291 292 293 294 295 298 298 299 300 309 313 312 322 330 331 333 335 335 335 334 333 334 333 330 327 326 325 322 321 320 318 316 314 312 309 308
281 281 276 282 285 286 285 277 285 288 287 287 287 289 290 292 293 295 298 299 300 301 306 309 312 316 327 328 330 333 334 334 334 334 334 333 331 327 325 324 323 322 320 318 316 313 309 307 306
274 271 275 278 285 284 283 279 284 287 287 287 288 289 290 290 292 293 296 298 300 301 304 304 308 311 323 327 331 331 331 333 333 334 333 333 331 328 325 324 324 321 320 317 316 311 310 307 307
272 274 278 278 281 283 281 280 284 287 287 287 287 289 289 290 291 294 295 297 298 300 301 300 304 306 311 325 327 328 330 329 331 331 333 333 331 328 327 325 323 322 320 317 315 312 309 308 309
278 278 277 280 284 282 281 281 283 287 287 287 288 288 289 290 292 294 294 295 296 298 300 299 300 306 316 323 322 323 323 328 328 329 331 331 332 330 327 326 324 322 320 318 315 312 309 309 309
278 278 277 280 283 282 281 280 284 286 285 282 284 285 286 288 289 292 292 292 293 295 297 300 302 304 309 318 321 322 325 328 329 329 329 330 330 330 328 327 324 322 320 318 315 313 309 311 312
276 275 276 277 281 282 279 278 280 282 283 283 284 284 284 285 286 288 290 291 291 292 294 297 298 302 313 317 319 319 321 323 326 324 328 328 329 329 328 328 325 322 321 318 316 314 311 308 309
273 281 281 279 275 271 279 269 277 280 280 281 282 282 282 284 286 288 289 289 290 292 293 295 296 303 312 314 318 316 316 317 320 325 327 327 328 328 328 328 325 322 321 319 316 315 313 310 308
277 282 279 278 275 275 269 271 272 277 275 277 280 281 282 283 286 287 288 289 291 291 293 295 304 306 307 309 312 316 314 317 319 322 325 326 326 327 328 327 324 323 321 320 317 314 313 312 311
283 276 275 273 272 264 267 269 268 271 274 276 279 281 281 283 286 290 291 289 289 292 295 300 301 302 303 304 307 312 315 316 316 320 323 324 326 327 328 327 325 324 322 320 317 316 314 313 313
279 268 260 261 261 262 266 272 266 275 276 276 277 279 281 283 286 289 288 288 292 296 298 300 302 302 305 305 306 308 311 312 317 320 321 323 324 324 324 324 323 323 322 320 319 317 315 314 314
273 273 265 260 262 266 270 266 272 279 278 278 279 280 281 282 284 289 290 292 293 295 296 295 298 297 298 300 303 303 305 309 310 315 320 320 323 322 322 324 324 323 323 322 320 318 317 316 315
272 269 277 271 265 266 268 272 276 277 276 276 277 278 279 281 283 287 290 291 292 293 293 294 296 296 297 297 299 299 300 303 303 303 305 303 304 305 307 309 312 311 312 319 321 318 317 315 315
273 276 267 270 262 258 262 258 265 270 272 274 275 276 277 280 282 286 287 288 290 291 292 293 294 293 294 295 295 296 296 297 297 298 299 302 300 299 300 300 300 301 300 300 302 303 303 309 314
272 269 271 272 272 265 262 263 274 273 274 273 274 276 278 279 281 284 286 287 288 289 289 290 290 291 291 292 293 293 293 293 294 294 295 296 295 295 294 295 295 294 294 295 295 294 295 294 294
275 275 275 270 267 271 269 267 277 276 275 275 275 276 278 280 281 283 284 285 286 286 287 287 288 288 289 290 290 290 291 291 291 291 291 293 292 292 293 292 293 291 291 291 291 290 290 290 290
Wind_Speed
11 8 0 4 4 3 3 9 4 8 5 2 6 2 6 4 5 6 1 8 9 14 14 15 19 20 20 20 19 16 15 16 18 19 19 19 19 18 19 17 14 16 16 18 17 14 17 16 14
6 4 4 3 5 4 6 6 10 14 5 9 6 4 3 8 1 2 5 8 12 15 14 15 17 21 20 20 19 19 16 16 16 18 18 19 19 18 18 17 14 16 17 17 18 15 17 17 15
6 2 4 5 4 7 6 7 14 3 6 5 5 4 4 4 2 5 7 11 13 15 14 14 17 20 21 21 20 19 19 17 17 17 19 18 18 17 16 15 14 14 18 19 18 15 19 18 17
3 5 4 4 9 7 7 3 4 7 6 4 1 10 6 2 2 6 8 13 13 13 15 14 19 21 20 21 21 21 19 19 17 18 18 17 16 15 15 14 15 13 14 15 17 17 15 17 16
4 3 2 2 5 5 4 6 6 8 5 6 8 7 6 7 9 2 7 12 15 12 12 13 20 20 21 21 21 21 20 19 18 18 18 17 16 15 14 15 15 12 11 15 14 16 13 13 13
4 3 1 4 5 4 3 8 5 6 5 13 10 9 7 6 20 18 6 7 11 16 12 13 15 17 19 21 22 21 19 19 19 18 18 16 16 15 15 15 15 17 15 14 15 13 13 12 11
6 4 4 3 4 4 2 8 4 5 8 6 14 5 6 14 21 20 11 7 4 9 13 12 13 11 13 17 19 20 19 18 17 18 18 16 14 14 16 14 14 14 15 14 13 13 12 11 9
4 4 1 5 4 4 3 7 2 3 6 9 3 5 7 9 18 16 10 8 5 4 10 13 13 11 11 11 13 15 16 16 15 14 13 14 13 12 12 11 13 15 14 16 14 12 12 11 10
2 3 2 4 2 5 5 6 5 3 5 4 5 4 6 13 17 18 14 10 8 3 6 8 14 15 12 12 11 13 13 15 14 13 13 12 8 8 9 7 11 15 12 15 16 15 11 8 8
4 3 7 4 2 4 5 5 5 6 9 5 16 13 7 17 17 15 13 10 9 9 9 10 11 12 13 10 12 11 11 10 10 10 10 7 8 8 8 7 11 13 12 10 15 15 12 7 2
5 5 1 5 4 5 7 11 4 5 12 8 11 11 21 15 16 14 13 10 7 7 8 9 13 13 13 11 8 6 6 7 7 10 10 9 6 5 5 4 6 5 8 4 6 6 4 5 4
6 5 4 7 5 6 8 6 8 9 17 14 13 17 16 19 17 14 13 14 12 8 10 9 8 10 13 10 9 9 8 8 8 9 11 8 6 7 6 6 6 5 4 5 5 3 5 5 5
4 5 5 9 14 11 15 18 13 22 20 12 12 16 20 18 18 15 12 13 12 10 9 11 7 8 9 9 8 9 10 8 10 9 11 9 9 8 7 6 6 6 4 5 5 4 5 5 5
4 8 15 14 19 13 19 17 2 17 7 10 10 13 16 17 16 16 13 15 13 10 8 8 8 8 6 11 10 9 10 10 9 10 12 12 10 9 9 7 7 6 7 5 5 5 4 4 4
7 11 8 10 6 7 4 6 13 20 10 12 16 13 13 16 14 16 14 14 12 10 8 7 9 7 8 8 11 10 10 11 10 10 14 14 11 11 11 9 7 7 6 7 5 4 3 3 3
5 4 7 4 7 7 5 12 7 12 9 17 11 14 9 12 13 14 15 12 11 11 9 8 8 7 6 6 7 8 7 11 12 10 10 14 12 12 11 9 9 7 6 6 6 5 4 4 4
6 6 9 9 4 7 9 14 3 4 12 23 24 19 16 10 12 13 13 13 12 10 8 7 7 7 6 7 4 5 7 5 7 10 10 13 13 12 10 9 9 10 8 7 7 4 4 4 4
10 12 14 17 6 8 15 28 24 21 20 22 22 20 16 15 13 16 11 11 12 14 12 13 6 5 8 5 5 4 5 6 4 6 7 13 11 12 11 9 10 10 8 7 6 7 5 4 5
11 17 22 20 18 20 17 22 21 18 16 17 20 17 14 13 10 13 12 10 10 13 16 9 8 8 4 3 4 4 6 5 6 7 14 14 12 12 12 9 9 10 10 11 11 7 6 6 4
11 21 23 18 9 11 18 22 25 22 6 7 12 9 9 8 8 13 11 9 7 8 14 9 8 5 6 4 5 3 5 3 5 6 11 12 14 14 13 12 11 12 9 11 10 11 4 5 7
7 11 16 19 17 18 21 15 8 4 2 11 13 12 11 12 13 13 13 9 8 7 8 13 8 8 3 7 3 1 1 2 4 3 6 10 12 14 14 14 12 13 12 11 12 12 12 8 5
12 8 18 22 16 8 7 8 4 10 11 16 17 16 15 16 14 12 14 10 8 9 5 5 6 6 7 4 4 5 4 4 4 4 6 10 9 15 16 15 14 13 11 12 12 11 12 5 8
11 17 22 21 15 11 7 3 3 6 14 23 21 23 23 20 18 19 13 10 9 8 7 7 7 8 2 1 3 3 3 2 2 4 8 9 10 15 15 14 14 13 10 11 10 11 12 9 7
11 10 16 2 2 2 4 2 2 6 13 20 20 20 20 22 24 20 15 6 9 6 6 6 6 5 5 3 1 2 3 3 2 4 6 8 9 8 11 12 11 11 11 10 9 10 10 11 11
16 7 6 9 6 6 4 4 4 2 10 13 20 20 20 20 20 17 14 8 2 3 3 4 5 6 3 0 2 4 5 4 3 6 5 8 8 6 10 8 9 8 8 11 9 8 7 9 9
8 3 0 7 5 12 4 3 3 3 14 15 16 18 18 19 19 14 11 7 5 6 6 5 4 6 4 5 3 3 4 3 3 2 6 6 5 3 1 8 7 9 8 9 9 8 10 10 10
10 8 6 6 5 4 4 4 5 18 19 19 18 17 17 17 17 12 12 9 8 7 8 6 5 5 6 6 4 3 3 3 0 3 5 5 7 6 6 6 4 4 6 3 7 8 9 10 11
6 5 7 4 7 7 7 4 6 21 25 20 20 20 17 16 16 12 9 10 9 9 8 9 7 7 7 7 5 3 5 4 5 5 6 4 7 8 6 5 8 7 7 6 5 5 6 3 6
7 6 3 2 2 4 6 5 6 20 19 19 17 16 16 15 14 12 9 9 8 9 9 8 8 8 8 6 5 6 6 8 7 6 6 6 7 10 11 6 7 8 7 7 7 7 7 7 6
5 7 3 3 6 4 3 5 14 17 15 15 15 14 14 13 12 10 10 9 10 10 9 8 8 9 7 7 7 8 10 9 8 9 8 10 11 11 10 7 9 9 9 8 8 9 8 9 9
Wind_Direction
330 309 89 36 77 77 203 249 253 277 314 289 309 211 213 229 172 214 277 181 136 154 168 172 172 168 165 160 160 157 157 155 151 150 150 151 150 151 148 153 151 143 143 138 134 141 129 130 125
322 331 35 80 109 140 239 237 232 228 247 316 320 257 265 242 192 153 119 195 154 160 167 174 174 172 167 163 162 157 161 162 158 156 156 153 150 143 151 151 156 128 133 132 130 139 139 139 133
329 21 96 144 155 193 220 223 237 354 278 276 295 220 234 232 254 201 217 156 158 165 173 176 175 175 170 167 165 163 165 167 167 165 158 157 157 154 152 152 145 142 152 142 141 133 146 142 139
16 11 26 137 206 242 209 264 323 338 307 284 260 294 312 310 239 213 147 147 156 171 172 176 177 180 174 169 169 169 171 170 174 168 164 164 164 158 152 160 150 144 144 153 142 142 136 142 146
38 58 75 263 241 272 278 347 332 324 299 311 338 273 283 327 328 143 162 157 162 171 177 173 179 181 178 172 172 175 174 173 170 169 171 166 166 164 158 157 140 139 165 153 146 144 147 147 148
47 82 111 225 230 246 42 341 341 11 8 306 6 328 270 14 16 338 306 193 168 171 174 176 181 180 179 176 175 175 179 178 171 168 166 169 171 170 166 166 156 154 168 164 163 149 156 160 160
104 97 221 251 243 264 89 337 50 332 318 306 315 269 319 22 352 336 322 293 187 169 175 177 180 183 180 178 178 176 177 179 176 171 165 168 174 176 166 166 159 159 162 159 168 162 169 168 163
101 94 246 239 214 241 342 349 323 12 288 308 339 334 329 324 339 339 327 287 239 186 173 177 184 184 183 185 178 176 174 173 174 167 166 158 162 162 167 160 154 151 174 172 162 166 170 168 162
72 73 251 268 236 297 321 1 314 258 238 326 282 304 274 323 338 343 348 356 300 239 223 192 184 190 186 186 191 178 174 169 167 164 161 159 163 155 164 164 164 157 170 180 166 166 172 165 156
69 135 226 214 228 264 288 284 305 311 302 284 297 287 287 324 335 331 331 327 342 304 225 203 195 191 190 184 186 189 185 181 176 169 168 166 161 157 163 161 157 156 158 154 164 167 160 147 152
329 227 312 264 290 315 300 299 229 258 275 230 268 288 300 305 310 309 306 303 289 300 292 239 206 195 189 184 179 182 187 177 174 167 169 159 162 159 160 144 165 161 158 157 153 152 141 158 177
336 282 297 302 351 334 295 269 281 269 259 251 270 286 293 298 289 288 293 297 299 313 313 282 248 209 201 190 176 180 178 181 180 175 169 165 160 169 164 162 157 162 169 161 155 155 167 175 190
221 291 298 298 297 286 280 276 274 269 269 259 255 268 273 277 281 288 286 287 293 291 299 298 260 241 211 198 190 180 183 183 180 176 176 174 170 171 166 166 163 166 161 169 168 173 170 188 189
304 295 291 285 282 276 267 270 263 271 273 271 261 259 265 266 267 276 276 280 278 272 259 291 305 255 224 218 182 188 185 183 187 183 185 179 174 172 171 170 172 172 175 167 173 178 183 194 190
275 294 291 270 264 254 270 269 223 255 276 258 275 269 259 262 270 263 257 266 273 286 262 262 287 290 249 204 194 190 197 180 185 183 189 184 177 176 173 173 177 181 179 165 153 166 167 198 222
324 315 329 312 296 264 124 262 265 249 267 272 255 271 249 250 260 266 274 258 254 258 278 280 270 296 271 245 201 188 194 189 181 181 180 184 178 176 175 175 180 175 171 177 180 180 178 203 197
12 293 286 311 264 270 198 289 197 298 281 282 281 271 269 251 266 261 259 258 246 244 236 282 269 278 289 265 245 207 205 235 194 180 180 182 182 182 180 182 181 172 178 184 184 175 173 185 198
291 296 281 285 279 267 275 275 280 279 272 270 271 272 269 275 251 269 269 245 233 233 256 253 237 258 261 253 228 217 199 202 243 128 188 175 178 186 187 188 179 177 182 187 184 187 188 179 195
279 277 282 279 282 284 282 276 287 284 280 286 276 272 274 274 267 265 264 263 241 202 213 253 258 238 230 211 215 204 213 197 193 184 192 189 189 179 200 195 180 181 190 192 192 182 176 208 155
261 282 288 287 263 289 287 284 287 290 328 9 5 356 333 316 307 286 268 263 244 216 191 215 221 218 226 202 218 167 192 191 198 201 208 202 190 189 198 197 191 191 190 196 189 186 170 197 172
248 266 289 282 307 293 274 280 279 87 93 8 0 346 335 323 312 310 301 261 259 225 213 175 221 225 197 233 214 159 111 98 156 215 213 206 202 201 192 205 205 196 192 196 190 189 185 189 186
307 253 297 294 310 301 44 295 35 345 348 347 344 341 330 321 314 305 301 291 266 249 225 228 203 232 221 214 212 179 193 184 171 186 198 187 207 213 216 202 206 202 200 193 194 188 193 152 195
268 312 290 287 283 289 318 246 13 9 347 340 337 336 330 326 318 306 284 278 286 271 227 206 190 190 171 199 271 207 214 210 163 167 189 186 211 220 206 201 199 198 195 200 188 196 197 197 185
315 305 317 20 136 328 261 152 28 16 335 325 327 327 326 324 321 309 295 286 277 255 189 172 155 108 64 8 313 251 271 239 223 195 210 203 205 206 212 200 201 215 195 205 198 199 205 203 207
353 342 349 358 7 238 282 292 227 18 357 331 324 325 326 326 322 318 315 314 229 151 115 115 146 139 154 79 342 351 271 303 301 256 229 223 205 200 197 181 197 202 197 190 186 202 202 214 216
339 31 293 310 317 297 338 276 265 311 357 335 327 327 330 334 329 341 355 25 68 49 41 50 46 39 24 26 11 360 307 271 247 320 242 285 189 184 187 184 193 204 204 195 197 207 212 213 218
311 3 287 256 234 290 284 289 325 341 349 345 338 338 338 336 334 347 360 24 36 31 35 30 38 21 21 25 15 12 342 328 208 81 72 100 44 42 42 15 56 36 23 294 214 206 217 209 214
149 301 357 335 350 312 308 315 287 337 336 342 342 341 340 338 339 340 5 11 26 26 30 31 30 38 31 35 23 24 21 22 46 52 61 88 83 77 47 41 50 34 42 23 12 16 9 293 237
351 355 337 231 317 299 305 307 326 343 336 334 337 340 337 340 341 339 3 16 19 26 31 35 34 41 43 37 36 43 41 36 52 56 64 61 79 79 51 38 48 52 38 30 50 45 33 59 54
144 2 297 303 311 256 249 290 9 335 335 333 339 341 343 347 337 349 7 21 27 28 20 34 35 44 41 49 55 54 49 52 54 58 51 64 68 54 73 71 60 56 53 44 54 61 55 60 55